Weather History for Nashua, NH

Change the Weather History Date:

Saturday, February 16, 2013

  Actual Average Record
Temperature  
Mean Temperature 33 °F -  
Max Temperature 37 °F 36 °F 61 °F (2006)
Min Temperature 28 °F 14 °F -7 °F (2004)
Degree Days  
Heating Degree Days 32    
Moisture  
Dew Point 26 °F    
Average Humidity 80    
Maximum Humidity 100    
Minimum Humidity 47    
Precipitation  
Precipitation 0.05 in - - ()
Sea Level Pressure  
Sea Level Pressure 30.32 in    
Wind  
Wind Speed 5 mph (NNW)    
Max Wind Speed 14 mph    
Max Gust Speed -    
Visibility 6 miles    
Events      
Averages and records for this station are not official NWS values.
T = Trace of Precipitation, MM = Missing Value Source: NWS Daily Summary

Daily Weather History Graph

Daily Weather History Graph

Search for Another Location

Airport:

Trip Planner

Search our weather history database for the weather conditions in past years. The results will help you decide how hot, cold, wet, or windy it might be!

Date:

Astronomy

Feb. 16, 2013 Rise Set
Actual Time 6:41 AM EST 5:19 PM EST
Civil Twilight 6:12 AM EST 5:48 PM EST
Nautical Twilight 5:39 AM EST 6:21 PM EST
Astronomical Twilight 5:06 AM EST 6:54 PM EST
Moon 9:42 AM EST (2/16) No Moon Set
Length of Visible Light 11h 35m
Length of Day
10h 37m
Waxing Crescent, 39% of the Moon is Illuminated
Feb 16
Waxing Crescent
Feb 17
First Quarter
Feb 25
Full
Mar 4
Last Quarter
Mar 11
New

Hourly Weather History & Observations

Time (EST) Temp. Windchill Dew Point Humidity Pressure Visibility Wind Dir Wind Speed Gust Speed Precip Events Conditions
12:51 AM 30.0 °F 23.2 °F 25.2 °F 82% 30.70 in 10.0 mi NNW 6.9 mph - N/A   Overcast
1:51 AM 31.1 °F 27.7 °F 25.2 °F 79% 30.69 in 10.0 mi NW 3.5 mph - N/A   Overcast
2:51 AM 34.9 °F 25.7 °F 26.1 °F 70% 30.69 in 9.0 mi NNW 13.8 mph - N/A   Overcast
3:09 AM 33.8 °F 25.3 °F 28.4 °F 81% 29.95 in 2.0 mi NW 11.5 mph - N/A   Haze
3:22 AM 33.8 °F 25.8 °F 30.2 °F 87% 29.95 in 4.0 mi NW 10.4 mph - N/A   Mostly Cloudy
3:34 AM 33.8 °F 27.7 °F 30.2 °F 87% 29.96 in 2.0 mi NW 6.9 mph - N/A   Scattered Clouds
3:42 AM 32.0 °F 25.6 °F 30.2 °F 93% 29.96 in 1.8 mi NW 6.9 mph - N/A   Mostly Cloudy
3:51 AM 32.0 °F 25.6 °F 30.0 °F 92% 30.71 in 1.0 mi NW 6.9 mph - N/A   Mostly Cloudy
3:54 AM 32.0 °F 25.6 °F 30.2 °F 93% 29.96 in 0.8 mi NNW 6.9 mph - N/A   Mostly Cloudy
4:12 AM 32.0 °F 26.4 °F 30.2 °F 93% 29.96 in 1.0 mi NNW 5.8 mph - N/A   Mist
4:22 AM 32.0 °F 27.5 °F 30.2 °F 93% 29.96 in 1.2 mi NW 4.6 mph - N/A   Mostly Cloudy
4:51 AM 32.0 °F 28.7 °F 30.0 °F 92% 30.70 in 1.5 mi NNW 3.5 mph - N/A   Overcast
5:01 AM 32.0 °F 28.7 °F 30.2 °F 93% 29.95 in 2.5 mi NNW 3.5 mph - N/A   Scattered Clouds
5:05 AM 32.0 °F 28.7 °F 30.2 °F 93% 29.95 in 3.0 mi NW 3.5 mph - N/A   Mostly Cloudy
5:25 AM 32.0 °F - 30.2 °F 93% 29.95 in 2.0 mi Calm Calm - N/A   Mostly Cloudy
5:41 AM 30.2 °F - 30.2 °F 100% 29.94 in 4.0 mi Calm Calm - N/A   Mostly Cloudy
5:51 AM 31.1 °F - 30.0 °F 96% 30.70 in 3.0 mi Calm Calm - N/A   Mostly Cloudy
6:00 AM 30.2 °F - 30.2 °F 100% 29.94 in 2.5 mi Calm Calm - N/A   Overcast
6:11 AM 30.2 °F - 30.2 °F 100% 29.94 in 3.0 mi Calm Calm - N/A   Scattered Clouds
6:35 AM 30.2 °F - 30.2 °F 100% 29.94 in 2.0 mi Calm Calm - N/A   Scattered Clouds
6:43 AM 30.2 °F - 30.2 °F 100% 29.94 in 1.5 mi Calm Calm - N/A   Mostly Cloudy
6:51 AM 31.1 °F - 30.0 °F 96% 30.70 in 1.8 mi Calm Calm - N/A   Mostly Cloudy
6:59 AM 30.2 °F - 30.2 °F 100% 29.94 in 2.0 mi Calm Calm - N/A   Partly Cloudy
7:05 AM 30.2 °F - 30.2 °F 100% 29.94 in 1.8 mi Calm Calm - N/A   Mostly Cloudy
7:19 AM 30.2 °F - 30.2 °F 100% 29.95 in 3.0 mi Calm Calm - N/A   Scattered Clouds
7:51 AM 31.1 °F - 30.0 °F 96% 30.71 in 6.0 mi Calm Calm - N/A   Mostly Cloudy
8:51 AM 32.0 °F 28.7 °F 30.0 °F 92% 30.71 in 10.0 mi NW 3.5 mph - N/A   Partly Cloudy
9:51 AM 32.9 °F 27.5 °F 29.1 °F 86% 30.69 in 10.0 mi North 5.8 mph - 0.01 in   Partly Cloudy
10:51 AM 34.9 °F 29.9 °F 28.0 °F 76% 30.69 in 10.0 mi NNW 5.8 mph - 0.04 in   Overcast
11:04 AM 35.6 °F 29.2 °F 26.6 °F 70% 29.93 in 10.0 mi NNW 8.1 mph - N/A   Overcast
11:11 AM 35.6 °F 31.7 °F 26.6 °F 70% 29.92 in 10.0 mi NNW 4.6 mph - N/A   Mostly Cloudy
11:51 AM 36.0 °F 33.3 °F 27.1 °F 70% 30.66 in 10.0 mi North 3.5 mph - N/A   Overcast
12:51 PM 36.9 °F - 25.2 °F 63% 30.64 in 10.0 mi Calm Calm - N/A   Overcast
1:51 PM 37.9 °F 35.5 °F 23.0 °F 55% 30.62 in 10.0 mi NE 3.5 mph - N/A   Overcast
2:51 PM 37.9 °F - 23.0 °F 55% 30.61 in 10.0 mi Calm Calm - N/A   Overcast
3:51 PM 37.9 °F 32.7 °F 21.0 °F 51% 30.60 in 10.0 mi NNE 6.9 mph - N/A   Mostly Cloudy
4:51 PM 36.9 °F 31.4 °F 20.1 °F 51% 30.58 in 10.0 mi North 6.9 mph - N/A   Scattered Clouds
5:51 PM 34.9 °F 27.7 °F 18.1 °F 51% 30.61 in 10.0 mi North 9.2 mph - N/A   Partly Cloudy
7:51 PM 32.9 °F 25.3 °F 15.1 °F 48% 30.59 in 10.0 mi North 9.2 mph - N/A   Clear
8:51 PM 32.0 °F 23.0 °F 14.0 °F 48% 30.57 in 10.0 mi NNW 11.5 mph - N/A   Clear
9:51 PM 30.0 °F 21.1 °F 12.0 °F 47% 30.56 in 10.0 mi North 10.4 mph - N/A   Clear
10:51 PM 29.1 °F 20.6 °F 15.1 °F 56% 30.54 in 10.0 mi North 9.2 mph - N/A   Clear
11:51 PM 28.0 °F 18.1 °F 15.1 °F 58% 30.51 in 10.0 mi NNW 11.5 mph - N/A   Clear